Location: Demmingen
(48.6757°N, 10.4375°E)
Time: 07:54:15
(UTC+00:00)

CZ-2C R/B - Pass Details

Date: 12 August 2024
Orbit: 703 x 903 km, 98.2° (Epoch: 16 September)

Event Time Altitude Azimuth Distance (km) Brightness Sun altitude
Rises 02:04:15 0° 8° (N) 3,183 7.2 -17.1°
Reaches altitude 10° 02:06:34 10° 3° (N) 2,280 6.2 -16.9°
Maximum altitude 02:11:19 45° 291° (WNW) 1,053 3.5 -16.4°
Enters shadow 02:13:54 26° 235° (SW) 1,536 4.0 -16.1°
